[[{"header":{"parameterUnit":"m.s-1","parameterCategory":1,"la1":30.2991,"la2":30.254,"lo1":-89.0895,"lo2":-89.0444,"dy":0.0017,"dx":0.0017,"nx":28,"ny":28,"refTime":"2023-09-15T03:00:00:Z","depth":0,"parameterNumber":2,"parameterNumberName":"U-component_of_WINDS"},"data":[0,0,0,0,0,0,0,0,0,0,0,0,0,0,0,0,0,0,0,0,0,0,0,0,0,0,0,0,0,0,0,0,0,0,0,0,0,0,0,0,0,0,0,0,0,0,0,0,0,0,0,0,0,0,0,0,0,0,-1.8587,-1.8587,0,-1.86,-1.86,-1.86,-1.8482,-1.8478,-1.8475,-1.8472,-1.8487,-1.8491,-1.8494,0,0,0,0,0,0,0,0,0,0,0,0,0,-1.8462,-1.8465,-1.8587,-1.8587,-1.8588,-1.86,-1.86,-1.86,-1.8482,-1.8478,-1.8474,-1.8471,-1.8486,-1.849,-1.8494,0,0,0,0,0,0,0,0,0,0,0,0,0,-1.85,-1.8466,-1.8587,-1.853,-1.8525,-1.86,-1.86,-1.86,-1.8483,-1.8478,-1.8473,-1.8469,-1.8485,-1.849,-1.8495,-1.8626,0,0,-1.8511,-1.8513,0,0,0,0,0,0,0,0,-1.8498,-1.8505,-1.8538,-1.8534,-1.8529,-1.8534,-1.8561,-1.8609,-1.8484,-1.8499,-1.8472,-1.8466,-1.8507,-1.851,-1.8523,-1.8626,-1.8627,-1.8511,-1.8514,-1.8517,-1.8518,0,0,0,0,0,0,0,-1.8495,-1.8503,-1.8592,-1.8539,-1.8533,-1.8504,-1.8504,-1.857,-1.8531,-1.8498,-1.8489,-1.8492,-1.8503,-1.8519,-1.8523,-1.8627,-1.8511,-1.8516,-1.8519,-1.8521,-1.8838,-1.8843,0,0,0,0,0,0,-1.85,-1.8502,-1.8592,-1.8593,-1.8501,-1.8511,-1.851,-1.8537,-1.853,-1.8524,-1.8496,-1.8486,-1.8512,-1.8517,-1.8523,-1.8676,-1.8516,-1.8521,-1.8524,-1.8833,-1.8839,-1.8845,0,0,0,0,0,0,-1.8498,-1.8509,-1.8591,-1.8545,-1.8553,-1.8518,-1.8549,-1.854,-1.8555,-1.8528,-1.8521,-1.8519,-1.8508,-1.8515,-1.8601,-1.8675,-1.8524,-1.8528,-1.8826,-1.8835,-1.8842,-1.8983,0,0,0,0,0,0,-1.8495,-1.8509,-1.8559,-1.8547,-1.8556,-1.8669,-1.8554,-1.8544,-1.8564,-1.8552,-1.8548,-1.8542,-1.8505,-1.8594,-1.8606,-1.8679,-1.8532,-1.882,-1.883,-1.8839,-1.8972,-1.8995,-1.9015,0,0,0,0,0,-1.8491,-1.8598,-1.8562,-1.8573,-1.8617,-1.8674,-1.8679,-1.8633,-1.8571,-1.862,-1.8603,-1.8543,-1.8664,-1.8603,-1.8616,-1.8692,-1.8815,-1.8827,-1.8839,-1.8962,-1.8991,-1.9014,0,0,0,0,0,0,-1.862,-1.8596,-1.8555,-1.8662,-1.8671,-1.8654,-1.8715,-1.8665,-1.8692,-1.8679,-1.8622,-1.8622,-1.8717,-1.8712,-1.8645,-1.8818,-1.8729,-1.8744,-1.8818,-1.8845,-1.8866,-1.8866,-1.8537,0,0,0,0,0,-1.8661,-1.8709,-1.8685,-1.8781,-1.8788,-1.8751,-1.8774,-1.8738,-1.8745,-1.8749,-1.8737,-1.8747,-1.8787,-1.8815,-1.8851,-1.897,-1.8968,-1.9028,-1.905,-1.9067,-1.9082,-1.9145,-1.9172,-1.8884,-1.8884,-1.8884,0,0,-1.8747,-1.8739,-1.8773,-1.8807,-1.881,-1.8862,-1.8755,-1.8814,-1.8852,-1.8757,-1.8838,-1.883,-1.8837,-1.894,-1.8984,-1.8939,-1.9161,-1.9083,-1.9097,-1.9102,-1.916,-1.9187,-1.9212,-1.8892,-1.8891,-1.8889,0,0,-1.8928,-1.8927,-1.9007,-1.9012,-1.9017,-1.8991,-1.9011,-1.9001,-1.8992,-1.9071,-1.9002,-1.9046,-1.9116,-1.9124,-1.9138,-1.9322,-1.9268,-1.9335,-1.9448,-1.951,-1.9533,-1.9553,-1.962,-1.9644,-1.9349,-1.9349,-1.9349,0,-1.9034,-1.9109,-1.9055,-1.9119,-1.9137,-1.9052,-1.9134,-1.9141,-1.9158,-1.9172,-1.912,-1.9207,-1.9206,-1.931,-1.9354,-1.9368,-1.9389,-1.9336,-1.9534,-1.9553,-1.9571,-1.9634,-1.9659,-1.9357,-1.9356,-1.9355,-1.9355,0,-1.9239,-1.9291,-1.9356,-1.9374,-1.9398,-1.9471,-1.9429,-1.946,-1.9421,-1.9401,-1.9483,-1.9478,-1.9511,-1.9532,-1.9495,-1.9631,-1.9603,-1.9544,-1.9453,-1.9608,-1.9666,-1.969,-1.9369,-1.9366,-1.9364,-1.9362,0,0,-1.9505,-1.9491,-1.9516,-1.9523,-1.9522,-1.9562,-1.963,-1.9662,-1.9691,-1.9704,-1.9761,-1.9822,-1.9767,-1.9782,-1.9745,-1.9799,-1.9946,-1.9732,-1.9732,-1.9774,-2.0097,-2.0143,-2.0172,-1.9909,-1.9914,-1.9917,-2.0097,0,-1.9684,-1.98,-1.9753,-1.9874,-1.9922,-1.9842,-1.9901,-1.9907,-1.989,-1.9929,-1.9909,-1.9954,-1.9877,-1.9885,-1.9935,-1.9918,-2.0011,-1.9904,-1.9963,-1.9966,-1.9966,-2.0203,-2.0252,-2.0422,-2.0119,-2.0123,-2.0126,0,-1.9908,-1.9931,-2.0056,-2.0046,-2.0064,-2.0119,-2.0144,-2.0182,-2.0187,-2.017,-2.0187,-2.0137,-2.0204,-2.0112,-2.0203,-2.0132,-2.0152,-2.0147,-2.0153,-2.0158,-2.0057,-2.0216,-2.0475,-2.0501,-2.0161,-2.0158,-2.0156,0,-2.0092,-2.0153,-2.0236,-2.0245,-2.0235,-2.0275,-2.0273,-2.0273,-2.0295,-2.0317,-2.033,-2.036,-2.0377,-2.0401,-2.0361,-2.0297,-2.0459,-2.0363,-2.0448,-2.045,-2.0488,-2.0486,-2.0755,-2.0498,-2.0498,-2.0497,-2.0497,0,-2.0298,-2.0378,-2.0319,-2.037,-2.0457,-2.0403,-2.0491,-2.048,-2.048,-2.0528,-2.046,-2.0506,-2.045,-2.0491,-2.046,-2.0541,-2.0548,-2.0538,-2.0529,-2.0545,-2.0547,-2.056,-2.0548,-2.0504,-2.0503,-2.0501,-2.05,0,-2.0519,-2.0482,-2.0568,-2.0551,-2.0548,-2.0614,-2.0599,-2.0646,-2.0623,-2.0685,-2.0696,-2.0661,-2.0705,-2.0667,-2.071,-2.0689,-2.0798,-2.0771,-2.0796,-2.079,-2.0878,-2.0871,-2.1166,-2.1202,-2.0921,-2.0923,-2.0926,0,-2.0654,-2.0713,-2.0702,-2.0729,-2.0731,-2.0776,-2.0797,-2.0745,-2.0771,-2.0781,-2.0827,-2.0866,-2.0894,-2.097,-2.0948,-2.0981,-2.0956,-2.1057,-2.096,-2.0975,-2.0959,-2.0957,-2.0963,-2.1077,-2.1081,-2.1083,-2.1086,0,-2.0897,-2.0876,-2.091,-2.0938,-2.0965,-2.0985,-2.0999,-2.1025,-2.0972,-2.1004,-2.1049,-2.1071,-2.1115,-2.1155,-2.118,-2.1178,-2.1124,-2.1116,-2.1137,-2.1156,-2.1169,-2.1164,-2.0852,-2.111,-2.1107,-2.1106,-2.1104,-2.1103,-2.108,-2.113,-2.113,-2.117,-2.1175,-2.1189,-2.1233,-2.1215,-2.1251,-2.1282,-2.1249,-2.1304,-2.1306,-2.1335,-2.1339,-2.1382,-2.1339,-2.1371,-2.1379,-2.1388,-2.1401,-2.116,-2.1386,-2.1385,-2.1384,-2.1384,-2.1383,0,-2.1322,-2.1317,-2.1354,-2.1376,-2.1408,-2.1352,-2.1365,-2.1395,-2.1444,-2.1451,-2.148,-2.1531,-2.1569,-2.155,-2.1583,-2.1621,-2.1597,-2.1631,-2.1629,-2.163,-2.1436,-2.1415,-2.165,-2.165,-2.165,-2.165,-2.165,-2.165,-2.1451,-2.1532,-2.1511,-2.1594,-2.1588,-2.1641,-2.1653,-2.1666,-2.1671,-2.1732,-2.1763,-2.175,-2.1746,-2.1778,-2.1811,-2.1804,-2.182,-2.1864,-2.1849,-2.1669,-2.1643,-2.1618,-2.1598,-2.1868,-2.1868,-2.2039,-2.204,-2.2041]},{"header":{"parameterUnit":"m.s-1","parameterCategory":1,"la1":30.2991,"la2":30.254,"lo1":-89.0895,"lo2":-89.0444,"dy":0.0017,"dx":0.0017,"nx":28,"ny":28,"refTime":"2023-09-15T03:00:00:Z","depth":0,"parameterNumber":3,"parameterNumberName":"V-component_of_WINDS"},"data":[0,0,0,0,0,0,0,0,0,0,0,0,0,0,0,0,0,0,0,0,0,0,0,0,0,0,0,0,0,0,0,0,0,0,0,0,0,0,0,0,0,0,0,0,0,0,0,0,0,0,0,0,0,0,0,0,0,0,-2.8323,-2.8323,0,-2.8355,-2.8356,-2.8356,-2.834,-2.8339,-2.8338,-2.8337,-2.8368,-2.837,-2.8371,0,0,0,0,0,0,0,0,0,0,0,0,0,-2.8242,-2.8244,-2.8322,-2.8323,-2.8323,-2.8355,-2.8356,-2.8356,-2.834,-2.8339,-2.8338,-2.8337,-2.8368,-2.837,-2.8372,0,0,0,0,0,0,0,0,0,0,0,0,0,-2.8276,-2.8244,-2.8322,-2.8319,-2.8319,-2.8355,-2.8356,-2.8356,-2.834,-2.8339,-2.8337,-2.8336,-2.8367,-2.8369,-2.8372,-2.8412,0,0,-2.8379,-2.838,0,0,0,0,0,0,0,0,-2.8274,-2.8279,-2.8319,-2.8319,-2.8319,-2.8342,-2.8339,-2.8375,-2.834,-2.8332,-2.8337,-2.8336,-2.836,-2.8363,-2.8372,-2.8414,-2.8415,-2.8379,-2.8381,-2.8382,-2.8383,0,0,0,0,0,0,0,-2.8272,-2.8278,-2.8335,-2.832,-2.832,-2.8315,-2.8318,-2.8346,-2.8353,-2.8333,-2.8332,-2.8336,-2.836,-2.837,-2.8373,-2.8416,-2.8379,-2.8382,-2.8383,-2.8384,-2.849,-2.8491,0,0,0,0,0,0,-2.827,-2.8276,-2.8334,-2.8336,-2.8293,-2.8317,-2.8321,-2.8336,-2.8353,-2.8354,-2.8337,-2.8335,-2.8366,-2.837,-2.8374,-2.8421,-2.8382,-2.8384,-2.8386,-2.8489,-2.849,-2.8492,0,0,0,0,0,0,-2.8268,-2.8276,-2.8333,-2.8306,-2.8313,-2.832,-2.8337,-2.8337,-2.8347,-2.8356,-2.8357,-2.8346,-2.8366,-2.837,-2.8403,-2.8422,-2.8385,-2.8388,-2.8487,-2.8489,-2.8491,-2.8516,0,0,0,0,0,0,-2.8266,-2.8275,-2.8291,-2.8306,-2.8314,-2.8362,-2.8338,-2.8339,-2.8352,-2.8349,-2.8364,-2.8365,-2.8365,-2.8399,-2.8405,-2.8424,-2.8389,-2.8485,-2.8488,-2.849,-2.8514,-2.8519,-2.8523,0,0,0,0,0,-2.8263,-2.8297,-2.8292,-2.8299,-2.8335,-2.8364,-2.8368,-2.8367,-2.8353,-2.8369,-2.8374,-2.8365,-2.8419,-2.8403,-2.8409,-2.8429,-2.8484,-2.8487,-2.849,-2.8511,-2.8518,-2.8523,0,0,0,0,0,0,-2.8284,-2.8299,-2.8294,-2.8334,-2.8347,-2.8361,-2.8381,-2.8374,-2.8392,-2.8389,-2.8387,-2.839,-2.8423,-2.843,-2.8411,-2.8469,-2.8449,-2.8454,-2.8463,-2.8469,-2.8474,-2.8471,-2.8392,0,0,0,0,0,-2.8293,-2.8316,-2.8328,-2.8361,-2.8369,-2.8374,-2.8386,-2.8384,-2.8398,-2.8404,-2.8411,-2.8424,-2.8444,-2.8457,-2.8476,-2.8515,-2.8517,-2.8532,-2.8537,-2.8541,-2.8544,-2.8563,-2.8569,-2.8502,-2.8502,-2.8502,0,0,-2.8312,-2.8323,-2.8337,-2.8366,-2.8376,-2.8398,-2.8378,-2.8403,-2.8419,-2.8407,-2.8438,-2.8444,-2.8458,-2.8493,-2.8509,-2.85,-2.8563,-2.8544,-2.8548,-2.8549,-2.8567,-2.8573,-2.8579,-2.8504,-2.8503,-2.8503,0,0,-2.8357,-2.8369,-2.8398,-2.8409,-2.8425,-2.8428,-2.8435,-2.8449,-2.8452,-2.8483,-2.8474,-2.8493,-2.8527,-2.8537,-2.8547,-2.8595,-2.8587,-2.8602,-2.8626,-2.8645,-2.865,-2.8655,-2.867,-2.8676,-2.8605,-2.8605,-2.8605,0,-2.8379,-2.8413,-2.8413,-2.8438,-2.845,-2.8441,-2.8468,-2.8479,-2.85,-2.8508,-2.8497,-2.8539,-2.8548,-2.8585,-2.8597,-2.8605,-2.8612,-2.8599,-2.865,-2.8654,-2.8658,-2.8673,-2.8679,-2.8607,-2.8607,-2.8607,-2.8606,0,-2.8437,-2.8461,-2.8482,-2.8503,-2.8517,-2.8544,-2.8547,-2.8561,-2.8558,-2.8561,-2.8592,-2.8603,-2.8622,-2.8631,-2.8629,-2.8667,-2.866,-2.865,-2.863,-2.8667,-2.868,-2.8686,-2.8609,-2.8609,-2.8608,-2.8608,0,0,-2.8496,-2.8517,-2.8524,-2.8533,-2.855,-2.8568,-2.8593,-2.8613,-2.8624,-2.8639,-2.8659,-2.8689,-2.8678,-2.8689,-2.8688,-2.8704,-2.874,-2.8691,-2.8691,-2.8698,-2.878,-2.8787,-2.8794,-2.8734,-2.8736,-2.8736,-2.8779,0,-2.8542,-2.8587,-2.8587,-2.8628,-2.8649,-2.864,-2.8662,-2.8674,-2.8678,-2.8695,-2.8699,-2.8719,-2.8705,-2.8711,-2.8728,-2.8732,-2.8756,-2.8729,-2.8751,-2.8752,-2.8747,-2.8801,-2.8809,-2.8849,-2.8784,-2.8785,-2.8786,0,-2.8601,-2.8618,-2.8661,-2.8674,-2.8683,-2.8702,-2.872,-2.8737,-2.875,-2.8751,-2.8763,-2.8759,-2.8783,-2.8763,-2.8796,-2.8778,-2.8787,-2.879,-2.8792,-2.8792,-2.877,-2.8802,-2.8861,-2.8867,-2.8795,-2.8794,-2.8793,0,-2.8638,-2.8671,-2.8701,-2.8709,-2.8725,-2.8739,-2.8746,-2.8757,-2.8769,-2.8784,-2.8791,-2.8809,-2.8818,-2.8831,-2.8831,-2.8817,-2.8863,-2.8844,-2.8864,-2.8864,-2.8873,-2.8872,-2.8933,-2.8881,-2.8881,-2.8881,-2.8881,0,-2.8688,-2.8714,-2.8718,-2.8736,-2.8764,-2.8764,-2.8792,-2.8798,-2.8808,-2.8826,-2.8819,-2.8836,-2.8835,-2.8852,-2.8852,-2.8878,-2.8883,-2.8883,-2.8883,-2.8883,-2.8883,-2.8888,-2.8885,-2.8883,-2.8882,-2.8882,-2.8882,0,-2.8733,-2.8737,-2.8768,-2.8781,-2.8784,-2.8805,-2.8814,-2.8831,-2.8834,-2.8857,-2.8862,-2.8867,-2.8886,-2.8887,-2.891,-2.891,-2.894,-2.8938,-2.8936,-2.8935,-2.8954,-2.8952,-2.9019,-2.9027,-2.8972,-2.8973,-2.8973,0,-2.8764,-2.8784,-2.8798,-2.881,-2.8818,-2.8837,-2.8849,-2.8849,-2.8861,-2.8877,-2.8891,-2.891,-2.8924,-2.8955,-2.896,-2.8977,-2.8973,-2.8996,-2.8975,-2.8975,-2.8971,-2.897,-2.8971,-2.8999,-2.9,-2.9,-2.9,0,-2.8818,-2.8819,-2.8836,-2.8854,-2.8868,-2.8882,-2.8895,-2.8905,-2.8906,-2.892,-2.894,-2.8951,-2.8974,-2.8992,-2.9008,-2.9014,-2.9007,-2.9007,-2.9012,-2.9012,-2.901,-2.9009,-2.8945,-2.9005,-2.9005,-2.9004,-2.9004,-2.9004,-2.8856,-2.8873,-2.8885,-2.8904,-2.8914,-2.8926,-2.8942,-2.8947,-2.8963,-2.8982,-2.8981,-2.9002,-2.9013,-2.9034,-2.9041,-2.9057,-2.9049,-2.9057,-2.9059,-2.906,-2.9062,-2.9008,-2.906,-2.906,-2.906,-2.906,-2.906,0,-2.8908,-2.8915,-2.8933,-2.8951,-2.8966,-2.8959,-2.8973,-2.8985,-2.9004,-2.9016,-2.903,-2.9052,-2.9069,-2.9075,-2.9092,-2.9103,-2.91,-2.9107,-2.9106,-2.9107,-2.9069,-2.9062,-2.9109,-2.9109,-2.9109,-2.9109,-2.9109,-2.9109,-2.8937,-2.8964,-2.8966,-2.8997,-2.9004,-2.9026,-2.9034,-2.9044,-2.9053,-2.9078,-2.9092,-2.9096,-2.9105,-2.9122,-2.9137,-2.9138,-2.9143,-2.9152,-2.9151,-2.9115,-2.911,-2.9105,-2.9098,-2.9153,-2.9153,-2.9188,-2.9188,-2.9189]}]]